Revelstoke, Canada 16 day weather forecast

Slopes altitude range 510 m - 2225m

Number of lifts: 4 Pistes: -1km

In some cases the lift and piste totals shown are for the ski domain (e.g. Three Valleys) rather than individual resort (e.g. Courchevel)

Overview

The 16 day weather forecast is fully updated 4 times every day.

    • Wed 21 NOV 2018
    • Wed 21
    • -4C -3C
    • Thu 22 NOV 2018
    • Thu 22
    • -4C -2C
    • Fri 23 NOV 2018
    • Fri 23
    • -5C -3C
    • Sat 24 NOV 2018
    • Sat 24
    • -7C -6C
    • Sun 25 NOV 2018
    • Sun 25
    • -6C -5C
    • Mon 26 NOV 2018
    • Mon 26
    • -8C -7C
    • Tue 27 NOV 2018
    • Tue 27
    • -3C -2C
    • Wed 28 NOV 2018
    • Wed 28
    • -5C -3C
    • Thu 29 NOV 2018
    • Thu 29
    • -3C -3C
    • Fri 30 NOV 2018
    • Fri 30
    • -7C -5C
    • Sat 01 DEC 2018
    • Sat 01
    • -11C -7C
    • Sun 02 DEC 2018
    • Sun 02
    • -9C -6C
    • Mon 03 DEC 2018
    • Mon 03
    • -12C -7C
    • Tue 04 DEC 2018
    • Tue 04
    • -13C -10C
    • Wed 05 DEC 2018
    • Wed 05
    • -10C -7C
    • Thu 06 DEC 2018
    • Thu 06
    • -7C -4C

Date:

Time Type 0°C level Temp Chill Snow Cloud Speed Gust Dir Press
12:00 796m -3°C -3_4 0cm 98% 4mph 5mph 1018mB
15:00 726m -4°C -4_4 0cm 96% 4mph 5mph 1017mB
18:00 1311m -1°C -1_4 0cm 85% 4mph 6mph 1013mB
21:00 1592m -1°C -1_5 0cm 60% 5mph 9mph 1010mB
0:00 1205m -2°C -2_5 0cm 74% 5mph 8mph 1011mB
3:00 1095m -3°C -3_5 1cm 93% 5mph 6mph 1011mB
6:00 1135m -3°C -3_4 1cm 96% 4mph 6mph 1010mB
9:00 919m -4°C -4_4 0cm 84% 4mph 5mph 1009mB
12:00 1024m -2°C -2_4 1cm 91% 4mph 4mph 1007mB
15:00 1097m -2°C -2_4 1cm 100% 4mph 6mph 1006mB
18:00 1390m -1°C -1_4 2cm 99% 4mph 6mph 1004mB
21:00 1421m -1°C -1_4 1cm 99% 4mph 6mph 1002mB
0:00 1009m -3°C -3_3 1cm 86% 3mph 4mph 1003mB
3:00 829m -4°C -4_4 0cm 67% 4mph 5mph 1004mB
6:00 680m -5°C -5_3 0cm 79% 3mph 4mph 1005mB
9:00 813m -5°C -5_3 0cm 100% 3mph 3mph 1004mB
12:00 928m -3°C -3_3 1cm 100% 3mph 4mph 1004mB
15:00 867m -3°C -3_3 1cm 97% 3mph 4mph 1005mB
18:00 1154m -2°C -2_4 1cm 73% 4mph 6mph 1003mB
21:00 1375m -2°C -2_3 0cm 43% 3mph 4mph 1001mB
0:00 783m -4°C -4_2 0cm 50% 2mph 3mph 1002mB
3:00 603m -6°C -6_3 0cm 90% 3mph 4mph 1005mB
6:00 464m -7°C -7_4 0cm 63% 4mph 5mph 1008mB
9:00 394m -7°C -7_3 0cm 9% 3mph 4mph 1012mB
12:00 377m -6°C -6_1 0cm 12% 1mph 1mph 1015mB
15:00 424m -7°C -7_0 0cm 76% 0mph 1mph 1019mB
18:00 983m -3°C -3_2 0cm 49% 2mph 3mph 1019mB
21:00 1234m -3°C -3_4 0cm 36% 4mph 5mph 1018mB
0:00 687m -5°C -5_3 0cm 57% 3mph 4mph 1020mB
3:00 630m -6°C -6_3 0cm 91% 3mph 4mph 1022mB
6:00 641m -6°C -6_3 0cm 95% 3mph 4mph 1023mB
9:00 697m -6°C -6_2 1cm 95% 2mph 2mph 1023mB
12:00 564m -5°C -5_1 1cm 96% 1mph 2mph 1023mB
15:00 439m -6°C -6_1 0cm 88% 1mph 1mph 1024mB
18:00 1003m -3°C -3_1 0cm 73% 1mph 2mph 1025mB
21:00 1285m -3°C -3_1 0cm 17% 1mph 1mph 1024mB
0:00 752m -5°C -5_1 0cm 24% 1mph 1mph 1026mB
3:00 595m -6°C -6_3 0cm 43% 3mph 3mph 1028mB
6:00 406m -7°C -7_2 0cm 41% 2mph 3mph 1029mB
9:00 330m -7°C -7_3 0cm 36% 3mph 4mph 1030mB
12:00 325m -7°C -7_3 0cm 57% 3mph 4mph 1029mB
15:00 476m -6°C -6_4 0cm 97% 4mph 4mph 1028mB
18:00 951m -3°C -3_4 0cm 94% 4mph 5mph 1025mB
21:00 1106m -3°C -3_4 1cm 97% 4mph 6mph 1022mB
0:00 977m -3°C -3_4 1cm 92% 4mph 5mph 1021mB
3:00 959m -3°C -3_4 1cm 98% 4mph 5mph 1020mB
6:00 1003m -3°C -3_4 1cm 97% 4mph 5mph 1017mB
9:00 1143m -3°C -3_5 1cm 97% 5mph 7mph 1015mB
12:00 1222m -2°C -2_5 2cm 98% 5mph 7mph 1012mB
15:00 1254m -1°C -1_4 2cm 99% 4mph 5mph 1010mB
18:00 1429m 0°C 0_4 4cm 100% 4mph 7mph 1008mB
21:00 1512m 0°C 0_4 3cm 100% 4mph 7mph 1007mB
0:00 1383m -1°C -1_3 5cm 100% 3mph 4mph 1009mB
3:00 1108m -2°C -2_3 1cm 86% 3mph 4mph 1012mB
6:00 932m -4°C -4_2 1cm 64% 2mph 3mph 1014mB
9:00 820m -4°C -4_3 0cm 26% 3mph 4mph 1014mB
12:00 661m -3°C -3_4 0cm 36% 4mph 5mph 1012mB
15:00 443m -5°C -5_5 0cm 58% 5mph 5mph 1010mB
18:00 948m -3°C -3_4 0cm 77% 4mph 5mph 1005mB
21:00 1249m -3°C -3_4 1cm 100% 4mph 6mph 999mB
0:00 975m -3°C -3_3 1cm 100% 3mph 4mph 997mB
3:00 939m -3°C -3_3 2cm 100% 3mph 4mph 997mB
6:00 950m -4°C -4_3 2cm 100% 3mph 4mph 997mB
9:00 975m -3°C -3_3 1cm 100% 3mph 4mph 999mB
12:00 979m -3°C -3_3 3cm 100% 3mph 4mph 1000mB
15:00 578m -4°C -4_4 0cm 56% 4mph 5mph 1000mB
18:00 1100m -2°C -2_4 0cm 76% 4mph 6mph 1000mB
21:00 1375m -2°C -2_4 0cm 98% 4mph 6mph 998mB
0:00 1008m -3°C -3_3 1cm 99% 3mph 4mph 999mB
3:00 736m -5°C -5_3 0cm 100% 3mph 3mph 1000mB
6:00 627m -5°C -5_3 0cm 100% 3mph 3mph 1001mB
9:00 540m -6°C -6_2 0cm 100% 2mph 3mph 1001mB
12:00 370m -5°C -5_2 0cm 100% 2mph 3mph 1002mB
15:00 180m -7°C -7_2 0cm 100% 2mph 3mph 1003mB
18:00 817m -4°C -4_2 0cm 98% 2mph 2mph 1003mB
21:00 1170m -4°C -4_2 0cm 68% 2mph 3mph 1002mB
0:00 408m -7°C -7_2 0cm 70% 2mph 2mph 1004mB
3:00 231m -8°C -8_2 0cm 68% 2mph 3mph 1006mB
6:00 105m -9°C -9_2 0cm 66% 2mph 3mph 1008mB
Afternoon 0.00520833mm 0 486m -7°C -7_2 0cm 62% 2mph 3mph 1013mB
Morning 0.166667mm 0 347m -8°C -8_2 0cm 71% 2mph 3mph 1018mB
Afternoon 0.197917mm 0 538m -6°C -6_2 2cm 88% 2mph 4mph 1020mB
Morning 0.270833mm 0 330m -8°C -8_2 2cm 83% 2mph 3mph 1022mB
Afternoon 0.0104167mm 0 444m -7°C -7_1 0cm 51% 1mph 1mph 1020mB
Morning 0.484375mm 0 0m -12°C -12_1 0cm 61% 1mph 2mph 1020mB
Afternoon 0.328125mm 0 0m -10°C -10_3 0cm 50% 3mph 4mph 1023mB
Morning 0.0572917mm 0 19m -12°C -12_7 0cm 59% 7mph 13mph 1020mB
Afternoon 0.0833333mm 0 455m -7°C -7_8 1cm 98% 8mph 16mph 1013mB
Morning 0.885417mm 0 463m -9°C -9_7 7cm 92% 7mph 15mph 1021mB
Afternoon 0.807292mm 0 857m -4°C -4_12 6cm 99% 12mph 23mph 1018mB
Morning 0.411458mm 0 654m -6°C -6_7 3cm 100% 7mph 13mph 1011mB

16 day outlook at a glance

Forecast issued: 21/11/2018 13:40:25

Chat

Your comments and questions. In a resort? Let us know what it's like!


Characters left 250

For terms and conditions see Readers Comments on the Cookie and privacy policy page.